SCP
0 0 0 0 0 0 0 0 0 0 -0 0 -0 0 0 -0 -0 0 -0 0 0 0 0 0 0 0 0 0 0 0 -0 -0
0 0 0 0 0 0 0 0 0 -0 -0 -0 -0 -0 0 0 -0 0 -0 -0 0 0 0 0 0 0 0 0 0 0 0 0
0 0 0 0 0 0 0 0 0 0 0 0 0 0 0 0 -0 0 0 0 0 0 0 0 0 0 0 0 0 0 0 0
-0 0 0 0 0 0 0 0 0 0 0 0 -0 -0 0 0 0 0 0 -0 -0 -0 -0 0 0 0 0 0 0 0 0 0
-0 0 0 0 0 0 0 0 0 0 0 -0 -0 0 -0 0 -0 -0 -0 -0 -0 -0 -0 -0 0 0 -0 0 0 0 0 0
0 0 0 0 0 0 0 0 -0 -0 0 0 -0 -0 -0 -0 -0 -0 -0 -0 -0 0 0 0 0 0 0 -0 -0 0 0 0
0 0 0 0 0 0 0 0 0 -0 -0 -0 0 -0 -0 -0 -0 -0 -0 -0 -0 -0 -0 0 0 0 0 0 0 0 0 0
0 0 0 0 0 0 0 0 0 0 -0 -0 0 0 0 -0 -0 -0 0 0 -0 0 0 -0 -0 -0 0 -0 -0 0 0 0
0 0 0 0 0 0 0 0 0 0 -0 0 0 -0 -0 -0 0 -0 0 0 0 0 0 -0 -0 -0 -0 -0 -0 0 0 0
0 0 0 0 0 0 0 0 0 0 0 -0 -0 0 -0 -0 -0 0 0 0 0 0 0 0 -0 -0 0 0 0 0 0 0
0 0 0 0 0 0 0 0 0 0 0 0 0 0 0 0 0 0 0 0 0 0 0 0 0 0 0 0 0 0 0 0
0 0 0 0 0 0 0 0 0 0 0 0 0 0 0 -0 0 0 0 0 0 0 0 0 0 0 0 0 0 0 0 0
0 0 0 0 0 -0 0 0 0 0 0 0 0 0 0 0 0 0 0 0 0 0 0 0 0 0 0 0 0 0 0 0
0 0 0 0 0 0 0 0 0 0 0 0 0 0 0 0 0 0 -0 -0 0 0 0 0 0 0 0 0 0 0 0 0
0 0 0 0 0 0 0 0 0 0 0 0 0 0 0 0 0 0 -0 -0 0 0 0 0 0 0 0 0 0 0 0 0
0 0 0 0 0 0 0 -0 0 0 0 0 0 0 0 0 0 0 0 0 0 0 0 0 0 0 0 0 0 0 0 0
0 0 0 0 0 0 0 -0 -0 0 0 0 0 0 0 0 0 0 -0 0 0 0 0 0 0 0 0 0 0 0 0 0
0 0 0 0 0 0 0 0 -0 0 0 0 0 0 0 0 0 0 0 0 0 0 0 0 0 0 0 0 0 0 0 0
0 0 0 0 0 0 0 0 0 0 0 0 0 0 0 1 0 0 0 0 0 0 0 0 0 0 0 0 0 0 0 0
Wind_Speed_500mb
13 11 20 13 13 3 4 2 8 5 11 22 7 8 5 6 13 29 44 55 61 60 57 53 64 65 56 53 50 45 44 42
3 12 7 12 22 8 5 10 14 6 10 12 8 12 9 9 14 19 29 38 46 55 60 50 55 60 58 52 48 47 45 47
2 19 28 10 10 4 3 4 7 8 10 7 10 13 18 16 18 18 24 34 41 49 57 51 50 51 51 50 47 45 45 45
36 2 1 8 14 28 16 15 2 7 12 4 7 11 12 12 17 16 18 24 29 37 46 48 44 44 48 45 41 39 40 40
12 11 6 10 13 16 9 7 13 13 11 6 6 13 20 13 17 17 21 23 26 29 35 39 44 49 44 44 42 36 41 40
18 15 9 12 15 23 24 12 14 18 24 15 13 13 17 17 21 23 25 26 26 26 27 32 40 43 44 40 39 30 35 43
29 22 17 23 21 29 25 22 18 23 20 30 16 22 27 26 26 28 27 26 25 24 24 26 32 39 43 39 41 34 21 25
12 7 21 26 23 30 27 14 8 10 16 14 7 14 25 26 30 27 27 26 25 24 21 20 21 21 22 27 38 48 36 32
14 2 9 9 31 33 25 23 23 17 22 14 14 23 35 35 34 34 32 30 28 23 19 20 20 19 19 21 24 27 29 35
8 6 32 2 9 31 39 30 27 11 16 21 19 26 31 44 45 38 37 34 31 30 28 23 19 19 18 16 14 13 12 14
13 15 11 9 7 11 23 25 31 27 11 10 9 18 16 36 41 40 37 33 33 36 32 26 20 20 18 14 11 9 8 9
9 27 31 14 8 7 4 20 23 34 16 19 29 18 19 56 48 37 32 36 38 38 31 26 28 21 13 10 5 4 8 11
23 24 32 10 16 15 9 9 30 28 31 35 22 15 25 57 52 46 41 37 40 39 31 26 21 15 8 5 7 16 13 8
26 32 31 7 10 41 11 19 20 18 22 47 38 19 22 54 60 56 51 44 42 40 32 24 17 9 8 5 11 15 21 19
10 19 9 10 4 8 9 15 21 30 19 27 35 28 29 45 58 59 54 47 46 40 33 25 14 11 13 13 18 21 22 24
16 4 11 9 2 7 13 23 34 32 30 28 34 34 38 46 57 57 55 51 48 43 32 22 15 12 15 17 21 24 24 25
15 7 4 8 30 27 5 25 26 29 30 29 36 38 44 52 57 58 57 54 51 39 33 24 14 12 13 14 17 19 21 21
6 25 13 11 27 18 34 36 34 30 22 20 35 43 46 54 59 60 61 57 47 40 32 19 9 9 10 10 11 14 18 22
23 16 28 32 30 9 31 36 38 34 26 20 30 44 57 60 61 62 57 48 47 40 27 16 11 10 7 7 10 14 21 27
Wind_Direction_500mb
205 175 184 162 205 226 137 103 270 262 263 268 257 216 227 175 182 194 199 202 202 207 214 213 214 216 210 221 220 220 220 222
172 163 78 217 147 171 198 230 257 224 278 281 243 196 203 185 199 194 197 200 202 206 213 220 219 218 215 221 229 230 229 227
208 208 198 159 194 116 127 270 254 283 300 204 227 193 188 189 203 194 192 196 198 204 212 222 224 217 218 218 226 231 234 233
246 229 241 215 226 212 221 203 236 298 277 155 219 185 198 170 189 186 181 187 195 202 212 219 217 215 215 218 225 236 230 235
225 188 149 209 198 207 148 137 194 252 273 162 224 217 226 177 162 171 161 164 177 192 207 212 209 211 219 231 235 244 237 237
231 226 164 183 188 203 205 207 213 237 268 249 194 204 197 168 148 157 159 162 166 176 189 200 211 216 222 225 228 225 232 232
243 252 217 246 197 183 209 205 211 241 218 252 203 185 188 163 146 149 155 166 168 172 177 187 199 213 218 221 215 202 201 204
266 321 234 242 238 200 210 197 221 198 230 238 160 157 163 166 156 155 163 168 169 169 173 184 198 200 201 207 209 215 225 221
248 335 156 241 229 204 195 197 193 186 217 163 182 193 178 171 174 171 168 165 166 160 151 152 152 158 165 172 184 202 221 227
206 191 235 126 301 223 205 195 195 236 221 209 218 195 185 183 181 176 172 170 162 153 146 147 154 161 161 159 167 187 209 227
221 228 280 234 143 174 198 220 206 219 213 207 165 154 198 192 188 182 180 175 165 161 160 142 142 148 147 141 142 153 183 220
219 229 234 206 124 25 347 244 205 211 202 170 161 176 201 194 190 184 175 174 174 172 169 151 143 136 133 129 126 207 202 206
224 243 240 253 121 89 198 248 318 217 204 173 193 207 197 189 185 185 183 183 181 180 171 159 154 148 151 157 135 170 190 208
211 219 236 143 142 187 213 313 320 299 233 201 197 209 164 183 183 183 187 183 183 181 173 167 170 181 227 243 211 215 211 220
283 216 0 320 133 112 4 328 329 308 298 235 192 190 170 176 181 185 186 183 183 179 174 179 191 232 253 259 249 247 245 246
312 79 54 69 56 22 347 323 308 307 286 237 206 189 175 175 179 181 183 184 179 174 178 186 213 244 261 256 252 255 257 254
289 4 168 355 23 13 332 344 330 297 276 251 209 201 181 178 179 178 176 176 177 176 178 192 214 255 272 266 254 252 251 251
264 338 313 320 349 360 19 350 347 323 287 244 213 207 186 177 173 171 168 171 175 181 185 192 231 264 266 258 247 242 245 252
252 276 295 292 318 299 337 335 335 333 297 243 204 200 183 172 169 167 168 176 183 186 188 204 218 229 238 262 268 260 259 266
Wind_Speed_850mb
13 11 20 13 13 3 4 2 8 5 11 22 7 8 5 6 13 29 44 55 61 60 57 53 64 65 56 53 50 45 44 42
3 12 7 12 22 8 5 10 14 6 10 12 8 12 9 9 14 19 29 38 46 55 60 50 55 60 58 52 48 47 45 47
2 19 28 10 10 4 3 4 7 8 10 7 10 13 18 16 18 18 24 34 41 49 57 51 50 51 51 50 47 45 45 45
36 2 1 8 14 28 16 15 2 7 12 4 7 11 12 12 17 16 18 24 29 37 46 48 44 44 48 45 41 39 40 40
12 11 6 10 13 16 9 7 13 13 11 6 6 13 20 13 17 17 21 23 26 29 35 39 44 49 44 44 42 36 41 40
18 15 9 12 15 23 24 12 14 18 24 15 13 13 17 17 21 23 25 26 26 26 27 32 40 43 44 40 39 30 35 43
29 22 17 23 21 29 25 22 18 23 20 30 16 22 27 26 26 28 27 26 25 24 24 26 32 39 43 39 41 34 21 25
12 7 21 26 23 30 27 14 8 10 16 14 7 14 25 26 30 27 27 26 25 24 21 20 21 21 22 27 38 48 36 32
14 2 9 9 31 33 25 23 23 17 22 14 14 23 35 35 34 34 32 30 28 23 19 20 20 19 19 21 24 27 29 35
8 6 32 2 9 31 39 30 27 11 16 21 19 26 31 44 45 38 37 34 31 30 28 23 19 19 18 16 14 13 12 14
13 15 11 9 7 11 23 25 31 27 11 10 9 18 16 36 41 40 37 33 33 36 32 26 20 20 18 14 11 9 8 9
9 27 31 14 8 7 4 20 23 34 16 19 29 18 19 56 48 37 32 36 38 38 31 26 28 21 13 10 5 4 8 11
23 24 32 10 16 15 9 9 30 28 31 35 22 15 25 57 52 46 41 37 40 39 31 26 21 15 8 5 7 16 13 8
26 32 31 7 10 41 11 19 20 18 22 47 38 19 22 54 60 56 51 44 42 40 32 24 17 9 8 5 11 15 21 19
10 19 9 10 4 8 9 15 21 30 19 27 35 28 29 45 58 59 54 47 46 40 33 25 14 11 13 13 18 21 22 24
16 4 11 9 2 7 13 23 34 32 30 28 34 34 38 46 57 57 55 51 48 43 32 22 15 12 15 17 21 24 24 25
15 7 4 8 30 27 5 25 26 29 30 29 36 38 44 52 57 58 57 54 51 39 33 24 14 12 13 14 17 19 21 21
6 25 13 11 27 18 34 36 34 30 22 20 35 43 46 54 59 60 61 57 47 40 32 19 9 9 10 10 11 14 18 22
23 16 28 32 30 9 31 36 38 34 26 20 30 44 57 60 61 62 57 48 47 40 27 16 11 10 7 7 10 14 21 27
Wind_Direction_850mb
205 175 184 162 205 226 137 103 270 262 263 268 257 216 227 175 182 194 199 202 202 207 214 213 214 216 210 221 220 220 220 222
172 163 78 217 147 171 198 230 257 224 278 281 243 196 203 185 199 194 197 200 202 206 213 220 219 218 215 221 229 230 229 227
208 208 198 159 194 116 127 270 254 283 300 204 227 193 188 189 203 194 192 196 198 204 212 222 224 217 218 218 226 231 234 233
246 229 241 215 226 212 221 203 236 298 277 155 219 185 198 170 189 186 181 187 195 202 212 219 217 215 215 218 225 236 230 235
225 188 149 209 198 207 148 137 194 252 273 162 224 217 226 177 162 171 161 164 177 192 207 212 209 211 219 231 235 244 237 237
231 226 164 183 188 203 205 207 213 237 268 249 194 204 197 168 148 157 159 162 166 176 189 200 211 216 222 225 228 225 232 232
243 252 217 246 197 183 209 205 211 241 218 252 203 185 188 163 146 149 155 166 168 172 177 187 199 213 218 221 215 202 201 204
266 321 234 242 238 200 210 197 221 198 230 238 160 157 163 166 156 155 163 168 169 169 173 184 198 200 201 207 209 215 225 221
248 335 156 241 229 204 195 197 193 186 217 163 182 193 178 171 174 171 168 165 166 160 151 152 152 158 165 172 184 202 221 227
206 191 235 126 301 223 205 195 195 236 221 209 218 195 185 183 181 176 172 170 162 153 146 147 154 161 161 159 167 187 209 227
221 228 280 234 143 174 198 220 206 219 213 207 165 154 198 192 188 182 180 175 165 161 160 142 142 148 147 141 142 153 183 220
219 229 234 206 124 25 347 244 205 211 202 170 161 176 201 194 190 184 175 174 174 172 169 151 143 136 133 129 126 207 202 206
224 243 240 253 121 89 198 248 318 217 204 173 193 207 197 189 185 185 183 183 181 180 171 159 154 148 151 157 135 170 190 208
211 219 236 143 142 187 213 313 320 299 233 201 197 209 164 183 183 183 187 183 183 181 173 167 170 181 227 243 211 215 211 220
283 216 0 320 133 112 4 328 329 308 298 235 192 190 170 176 181 185 186 183 183 179 174 179 191 232 253 259 249 247 245 246
312 79 54 69 56 22 347 323 308 307 286 237 206 189 175 175 179 181 183 184 179 174 178 186 213 244 261 256 252 255 257 254
289 4 168 355 23 13 332 344 330 297 276 251 209 201 181 178 179 178 176 176 177 176 178 192 214 255 272 266 254 252 251 251
264 338 313 320 349 360 19 350 347 323 287 244 213 207 186 177 173 171 168 171 175 181 185 192 231 264 266 258 247 242 245 252
252 276 295 292 318 299 337 335 335 333 297 243 204 200 183 172 169 167 168 176 183 186 188 204 218 229 238 262 268 260 259 266